Back to catalog

THORAD AGENA D DEB

AliveSSO
NORAD 4977·DEBRIS·🇺🇸 United States

Launched Apr 8, 1970 from Vandenberg Space Force Base

Loading…

Next Passes (next 24 hours)

TLE

FreshSource: Space-Track

Epoch: Sep 13, 2026, 22:35 UTC

1 04977U 70025GX  26256.94133862  .00000020  00000-0  10186-3 0  9999
2 04977 100.1630  41.3955 0020334  41.9832  80.8607 13.52477830781977

Track THORAD AGENA D DEB in real time with AllMySat

Download on the App Store